TUI6M LGKO-EDDF

Flight info

Callsign TUI6M
Flight time N/A
Altitude 24000
Route LARKI3A LARKI L609 URNIL/N0445F380 UL609 MES/N0428F320 UL608 FSK/N0443F380 UL608 DISOR DCT LONTA UL608 DOLEV DCT AGLIB DCT PODET DCT RADLY DCT SIMBA DCT AKINI T161 DEBHI DEBHI1B
Aircraft B38M/M-SDE1FGHILORVWXY/HB1

Departure

Time 2026-05-07 08:37
Airport Kos International Airport "Ippokratis" (LGKO)

Arrival

Time N/A
Airport Frankfurt Main Airport (EDDF)
Time Latitude Longitude Altitude Speed Heading
2026-05-07 08:02 36.80010 27.09035 421 ft 0 kts 58°
2026-05-07 08:25 36.80006 27.09028 410 ft 4 kts 58°
2026-05-07 08:26 36.79980 27.08975 410 ft 4 kts 73°
2026-05-07 08:26 36.79981 27.08952 413 ft 4 kts 126°
2026-05-07 08:26 36.79998 27.08933 413 ft 1 kts 147°
2026-05-07 08:27 36.80002 27.08930 415 ft 0 kts 147°
2026-05-07 08:30 36.79974 27.08952 411 ft 7 kts 147°
2026-05-07 08:30 36.79921 27.08980 420 ft 9 kts 177°
2026-05-07 08:30 36.79847 27.08983 420 ft 12 kts 179°
2026-05-07 08:31 36.79783 27.08985 421 ft 13 kts 178°
2026-05-07 08:31 36.79733 27.08987 417 ft 15 kts 178°
2026-05-07 08:31 36.79633 27.08993 418 ft 15 kts 169°
2026-05-07 08:31 36.79528 27.09059 414 ft 19 kts 148°
2026-05-07 08:32 36.79411 27.09152 414 ft 22 kts 146°
2026-05-07 08:32 36.79272 27.09267 411 ft 26 kts 148°
2026-05-07 08:32 36.79102 27.09394 403 ft 31 kts 149°
2026-05-07 08:32 36.78911 27.09541 397 ft 33 kts 148°
2026-05-07 08:33 36.78711 27.09695 396 ft 30 kts 147°
2026-05-07 08:33 36.78614 27.09783 393 ft 11 kts 127°
2026-05-07 08:33 36.78563 27.09826 390 ft 8 kts 199°
2026-05-07 08:33 36.78554 27.09809 390 ft 1 kts 282°
2026-05-07 08:34 36.78566 27.09801 391 ft 4 kts 339°
2026-05-07 08:34 36.78590 27.09789 392 ft 4 kts 331°
2026-05-07 08:34 36.78595 27.09785 392 ft 0 kts 328°
2026-05-07 08:36 36.78714 27.09694 396 ft 58 kts 328°
2026-05-07 08:36 36.79300 27.09238 412 ft 137 kts 328°
2026-05-07 08:36 36.80277 27.08479 660 ft 182 kts 328°
2026-05-07 08:37 36.81355 27.07625 1572 ft 184 kts 324°
2026-05-07 08:37 36.82174 27.06540 2394 ft 189 kts 300°
2026-05-07 08:37 36.82499 27.05605 2944 ft 191 kts 285°
2026-05-07 08:37 36.82684 27.04416 3558 ft 195 kts 279°
2026-05-07 08:38 36.82831 27.03143 4180 ft 199 kts 278°
2026-05-07 08:38 36.83030 27.01917 4674 ft 209 kts 287°
2026-05-07 08:38 36.83354 27.00843 5036 ft 221 kts 296°
2026-05-07 08:38 36.83804 26.99748 5204 ft 238 kts 301°
2026-05-07 08:39 36.84354 26.98624 5095 ft 247 kts 303°
2026-05-07 08:39 36.84927 26.97489 5269 ft 254 kts 303°
2026-05-07 08:39 36.85524 26.96306 5679 ft 263 kts 303°
2026-05-07 08:39 36.86141 26.95082 6200 ft 272 kts 303°
2026-05-07 08:40 36.86776 26.93820 6757 ft 276 kts 303°
2026-05-07 08:40 36.87417 26.92543 7458 ft 275 kts 303°
2026-05-07 08:40 36.87921 26.91540 8024 ft 275 kts 304°
2026-05-07 08:42 36.88220 26.90945 8329 ft 276 kts 304°
2026-05-07 08:42 36.88729 26.89929 8829 ft 278 kts 303°
2026-05-07 08:43 36.89456 26.88480 9564 ft 279 kts 304°
2026-05-07 08:43 36.89775 26.87844 9905 ft 279 kts 304°
2026-05-07 08:44 36.90099 26.87198 10222 ft 279 kts 303°
2026-05-07 08:44 36.90453 26.86492 10516 ft 282 kts 303°
2026-05-07 08:44 36.91210 26.84979 10936 ft 294 kts 303°
2026-05-07 08:44 36.91990 26.83424 11321 ft 305 kts 303°
2026-05-07 08:45 36.92789 26.81827 11761 ft 314 kts 303°
2026-05-07 08:45 36.93605 26.80198 12362 ft 315 kts 303°
2026-05-07 08:45 36.94403 26.78582 13062 ft 315 kts 302°
2026-05-07 08:45 36.95220 26.76875 13673 ft 318 kts 302°
2026-05-07 08:46 36.96058 26.75169 14235 ft 320 kts 306°
2026-05-07 08:46 36.97594 26.73295 14957 ft 322 kts 327°
2026-05-07 08:46 36.99677 26.72249 15662 ft 328 kts 348°
2026-05-07 08:46 37.01863 26.72229 16333 ft 336 kts
2026-05-07 08:47 37.03567 26.72888 16857 ft 344 kts 22°
2026-05-07 08:47 37.05055 26.73906 17354 ft 347 kts 25°
2026-05-07 08:47 37.06636 26.74723 17761 ft 347 kts 11°
2026-05-07 08:47 37.08501 26.75233 18292 ft 348 kts
2026-05-07 08:48 37.09238 26.75436 18501 ft 349 kts